This demonstration page uses our WeatherBlox Daily Observations layout. Learn more.

Left ArrowRight Arrow

53.62937, 11.41316

Hourly Observations for March 8, 2021

Temp ( °F °C ) Dew Point ( °F °C ) Humidity (%) Winds ( mph kmh ) Pressure ( in mb ) Visibility ( mi km ) Precip ( " mm )
7:50 am 07:50 Mostly Sunny 27 -3 25 -4 93 93 SW 1 2 30.21 1023 7 11 N/A
8:20 am 08:20 Mostly Sunny 34 1 25 -4 70 70 VRB 1 2 30.21 1023 7 11 N/A
8:50 am 08:50 Mostly Sunny 30 -1 25 -4 80 80 SSW 3 6 30.24 1024 7 11 N/A
9:20 am 09:20 Mostly Sunny 34 1 28 -2 81 81 VRB 2 4 30.24 1024 7 11 N/A
9:50 am 09:50 Mostly Sunny 36 2 28 -2 75 75 VRB 2 4 30.24 1024 7 11 N/A
10:20 am 10:20 Mostly Sunny 39 4 28 -2 65 65 VRB 1 2 30.24 1024 7 11 N/A
10:50 am 10:50 Mostly Sunny 39 4 25 -4 56 56 VRB 1 2 30.24 1024 7 11 N/A
11:20 am 11:20 Mostly Sunny 39 4 19 -7 45 45 VRB 2 4 30.24 1024 7 11 N/A
11:50 am 11:50 Mostly Sunny 41 5 19 -7 42 42 VRB 2 4 30.24 1024 7 11 N/A
12:20 pm 12:20 Mostly Sunny 41 5 16 -9 36 36 VRB 2 4 30.24 1024 7 11 N/A
12:50 pm 12:50 Mostly Sunny 43 6 18 -8 36 36 VRB 5 7 30.24 1024 7 11 N/A
1:20 pm 13:20 Mostly Sunny 43 6 14 -10 31 31 E 5 7 30.24 1024 7 11 N/A
1:50 pm 13:50 Mostly Sunny 43 6 14 -10 31 31 VRB 2 4 30.21 1023 7 11 N/A
2:20 pm 14:20 Mostly Sunny 43 6 12 -11 29 29 ENE 6 9 30.21 1023 7 11 N/A
2:50 pm 14:50 Mostly Sunny 43 6 12 -11 29 29 E 6 9 30.21 1023 7 11 N/A
3:20 pm 15:20 Mostly Sunny 43 6 14 -10 31 31 SE 6 9 30.21 1023 7 11 N/A
3:50 pm 15:50 Mostly Sunny 43 6 18 -8 36 36 E 5 7 30.21 1023 7 11 N/A
4:20 pm 16:20 Mostly Sunny 41 5 18 -8 39 39 E 7 11 30.21 1023 7 11 N/A
4:50 pm 16:50 Mostly Sunny 39 4 21 -6 48 48 NE 9 15 30.21 1023 7 11 N/A
5:20 pm 17:20 Mostly Sunny 39 4 19 -7 45 45 E 7 11 30.21 1023 7 11 N/A
5:50 pm 17:50 Mostly Sunny 37 3 21 -6 52 52 E 6 9 30.21 1023 7 11 N/A
6:20 pm 18:20 Mostly Clear 36 2 19 -7 52 52 E 5 7 30.21 1023 7 11 N/A
6:50 pm 18:50 Mostly Clear 36 2 19 -7 52 52 E 5 7 30.21 1023 7 11 N/A
7:20 pm 19:20 Mostly Clear 34 1 21 -6 60 60 E 5 7 30.21 1023 7 11 N/A
7:50 pm 19:50 Mostly Clear 34 1 23 -5 65 65 E 5 7 30.18 1022 7 11 N/A

Powered by AerisWeather